Regional Weather Roundup
Issued by NWS Goodland, KS

Home | Current Version | Previous Version | Graphics & Text | Print | Product List | Glossary On
Versions: 1 2 3 4 5 6 7 8 9 10 11 12 13 14 15 16 17 18 19 20 21 22 23 24 25 26 27 28 29 30 31 32 33 34 35 36 37 38 39 40 41 42 43 44 45 46 47 48 49 50
000
ASUS43 KGLD 310159
RWRGLD

GOODLAND FORECAST AREA HOURLY WEATHER ROUNDUP
NATIONAL WEATHER SERVICE GOODLAND KS
800 PM MDT THU OCT 30 2014

...OFFICIAL OBSERVATIONS...

CITY           SKY/WX    TMP DP  RH WIND       PRES   REMARKS
GOODLAND KS    CLEAR     42  26  53 N7        30.37R HAZE
HILL CITY KS   CLEAR     51  32  48 N12       30.33R
IMPERIAL NEB   CLEAR     44  29  55 NE8       30.37R
MCCOOK NEB     CLEAR     48  30  49 N13       30.36R
AKRON CO       CLEAR     45  27  49 NE7       30.38R
BURLINGTON CO  CLEAR     48  25  40 NE6       30.37R
LIMON CO       CLEAR     37  24  59 N5        30.40R
$$

...UNOFFICIAL OBSERVATIONS...

CITY           SKY/WX    TMP DP  RH WIND       PRES   REMARKS
COLBY KS       CLEAR     48  32  53 N10       30.36R
NORTON KS      CLEAR     50  28  43 N15       30.33R
SHARON SPRINGS   N/A     47  27  46 CALM        N/A
TRIBUNE KS     CLEAR     50  34  53 N9        30.37R
TRENTON NEB      N/A     49  32  52 N10         N/A
YUMA CO          N/A     46  27  47 NE6         N/A
$$



USA.gov is the U.S. government's official web portal to all federal, state and local government web resources and services.